User: anonymous   Login
Location: T�bingen+AIT
(48.5342°N, 9.0700°E)
Time: 19:05:49
(UTC+02:00)
Language:

Cosmos 1184 Rocket - Orbit

View from above orbital plane
View from above orbital plane
View from above satellite
View from above satellite

Ground track
Ground track

The orbit data is extracted from the following two-line orbital elements,

1 11822U 80044B   18175.17792159  .00003085  00000-0  59872-4 0  9994
2 11822  81.2299 132.0098 0013344  94.7025 265.5745 15.47187180 90197
Epoch (UTC): 24 June 2018 04:16:12
Eccentricity: 0.0013344
inclination: 81.2299°
perigee height: 416 km
apogee height: 434 km
right ascension of ascending node: 132.0098°
argument of perigee: 94.7025°
revolutions per day: 15.47187180
mean anomaly at epoch: 265.5745°
orbit number at epoch: 9019

The dashed part of the orbit path shows where the satellite is in the earth's shadow,  

DLR